YAOGAN-28

Last updated on Mon Sep 07 2026 00:02:45 GMT+0000 (Coordinated Universal Time)

1 41026U 15064A 26249.59809666 .00004796 00000+0 17631-3 0 9997 2 41026 97.3179 26.3091 0008857 261.1377 98.8860 15.28336293603119
UTC large
Height (km)
Speed (km/s)
/
Latitude / Longitude
Inclination (degrees)
Orbital Period (minutes)
Azimuth
Elevation
Range (km)
Doppler Factor

Next 0 passes for location: London (51.5072 / 0.1276)

No passes found over London.
YAOGAN-28